GFSSW_sfc_temp_159.txt.gz
Temp
64 64 64 64 64 64 64 64 64 64 64 64 64 64 64 65 64 61 57 65 67 69 67 63 66 64 64 58 57 57 52 48 52 54 57 58 59 61 63 62 60 62 60 63 65
64 64 64 64 64 64 64 64 64 63 63 63 64 64 64 64 62 57 66 70 70 69 63 62 59 62 55 55 54 51 47 53 61 59 57 60 60 62 60 59 58 58 60 65 63
63 63 63 64 64 63 63 63 63 63 63 63 63 63 64 63 56 58 68 69 70 68 65 63 63 59 53 54 53 51 48 58 59 63 62 61 58 63 60 55 61 60 59 62 62
62 62 63 63 63 63 63 63 63 62 62 62 63 63 62 58 44 59 68 69 69 67 65 60 58 54 50 50 53 50 55 57 59 60 59 58 62 60 58 63 65 62 64 63 61
62 61 62 62 62 63 63 63 63 62 62 62 63 62 59 52 53 62 66 67 65 64 62 58 56 55 50 51 51 50 55 57 59 59 59 61 59 57 58 61 60 61 63 63 63
61 61 61 61 61 62 62 63 62 62 62 62 63 62 55 48 63 63 62 63 62 61 60 60 57 57 53 51 52 53 54 55 56 57 57 56 57 55 62 61 57 59 61 63 63
61 60 60 60 61 61 61 62 62 61 62 63 63 58 53 53 61 59 63 60 62 62 59 60 60 56 53 49 54 53 50 52 54 56 55 59 53 54 63 57 57 57 59 60 62
60 60 60 60 60 61 61 61 61 61 61 62 62 55 48 61 58 59 58 56 60 63 62 60 61 56 54 53 51 47 48 43 54 56 56 55 46 58 65 58 58 55 56 59 60
60 59 60 60 60 60 60 61 60 61 62 61 54 53 48 59 54 57 57 55 56 59 61 64 60 53 50 46 44 43 38 40 48 57 55 52 48 60 65 57 59 56 56 58 61
58 59 59 59 59 59 59 60 60 59 58 58 57 47 50 49 55 55 55 57 55 55 55 53 51 47 47 46 39 40 40 43 46 51 49 48 50 59 61 57 58 59 55 57 58
59 59 59 59 59 60 57 52 45 45 50 49 49 48 50 54 58 53 55 56 54 52 45 50 44 41 46 48 50 48 44 42 49 54 49 48 50 55 59 58 54 54 55 56 58
58 58 59 59 59 60 54 45 47 48 42 50 51 53 51 53 49 52 57 50 48 45 48 44 41 49 52 49 48 47 42 42 49 51 48 48 48 54 56 58 60 61 59 55 60
55 57 58 59 59 55 50 48 53 52 40 44 50 49 51 52 48 49 54 52 47 44 45 42 45 52 49 47 44 46 45 42 45 47 48 44 44 49 56 54 59 60 61 64 61
56 55 57 58 53 52 48 52 52 50 24 34 42 47 50 51 45 55 55 53 47 43 46 44 51 48 46 44 46 41 50 48 46 43 39 46 37 48 53 55 57 58 60 62 64
55 56 52 58 52 48 52 52 49 44 7 37 40 52 49 45 47 48 57 52 45 45 45 41 44 44 43 46 49 46 50 46 46 42 39 38 34 43 50 49 54 57 61 64 66
55 56 56 54 52 54 53 50 45 20 8 29 41 41 41 44 46 48 49 52 53 45 46 46 48 49 49 51 50 49 45 44 42 40 32 40 37 41 44 47 52 58 58 61 64
53 55 53 53 46 56 52 47 22 10 28 33 35 39 40 40 42 44 43 43 40 33 36 41 41 45 48 44 47 47 41 31 30 29 31 38 37 44 49 50 51 55 59 54 56
53 54 52 52 53 54 49 34 12 17 21 38 38 39 35 39 41 42 41 38 43 41 36 35 32 42 47 44 41 43 43 34 27 27 30 34 32 40 52 57 61 57 59 53 54
54 47 45 49 51 52 40 26 23 22 29 36 39 34 35 40 39 40 39 39 43 43 36 34 35 46 47 46 48 41 37 44 34 25 25 33 37 44 51 52 53 51 51 53 54
46 43 41 49 49 47 34 28 27 32 36 38 30 36 31 34 36 38 37 44 43 45 49 41 35 41 44 48 47 44 47 35 34 25 22 30 30 38 44 51 60 51 49 51 51
44 36 43 49 48 39 29 28 31 35 37 32 28 32 34 35 36 35 37 42 46 43 45 44 39 36 42 39 40 40 39 41 41 35 31 24 33 43 52 54 50 53 52 52 52
36 31 43 47 34 33 31 32 37 33 35 33 32 32 37 36 36 37 37 41 45 46 39 44 37 32 36 43 48 47 43 43 36 32 31 31 38 46 48 48 48 50 51 50 50
34 36 44 45 30 30 35 33 34 32 33 33 32 34 35 36 33 38 40 45 45 46 43 43 33 29 31 37 40 38 43 47 44 38 34 33 40 48 44 45 48 48 49 50 46
35 30 36 38 33 33 31 30 28 35 33 35 33 35 34 33 36 34 36 42 44 46 47 47 35 31 32 32 37 36 40 42 42 34 36 39 40 44 47 47 50 50 50 50 49
33 31 33 29 30 35 37 31 30 30 33 34 32 33 33 27 30 30 33 37 41 44 44 41 31 33 35 36 38 39 40 41 37 39 36 43 43 49 52 53 52 49 51 50 50
31 32 33 33 34 35 37 31 32 30 32 31 32 32 33 30 32 29 34 35 36 41 42 38 31 33 32 36 37 31 39 43 42 42 42 43 44 50 51 51 46 51 50 49 50
37 37 34 35 33 33 31 31 34 33 33 35 33 33 32 33 37 37 39 38 37 36 36 35 32 31 28 34 34 30 35 40 43 42 44 39 48 49 48 48 51 51 50 52 52

GFSSW_sfc_temp_162.txt.gz
Temp
64 64 64 64 63 64 64 64 64 63 63 64 64 64 64 64 64 62 58 65 65 68 67 63 64 63 65 56 60 59 48 46 51 53 55 61 58 58 61 61 59 62 58 61 62
64 64 64 64 64 63 64 64 64 63 63 63 64 64 64 64 61 57 66 69 70 68 62 61 57 60 56 54 54 52 46 49 58 59 53 56 57 59 56 57 59 58 59 61 61
63 63 63 64 64 63 63 63 63 63 62 63 63 63 63 63 56 59 68 69 69 68 63 62 62 58 52 52 52 50 49 56 57 61 59 55 56 60 55 54 62 61 59 58 58
63 63 63 63 63 63 63 63 63 62 62 62 62 63 62 57 43 58 67 69 69 65 63 60 59 55 49 51 52 47 54 58 60 60 59 57 57 56 58 65 64 63 61 59 58
62 62 62 62 62 63 63 63 63 62 62 62 62 63 59 52 53 62 66 67 64 62 61 56 55 55 51 51 51 46 54 58 60 59 58 59 56 53 56 65 61 61 60 59 59
61 61 61 61 61 62 62 63 62 62 62 62 63 62 55 47 62 62 61 61 60 60 60 58 55 55 52 50 51 51 54 55 56 56 58 55 57 55 58 61 59 58 58 59 60
60 60 60 60 61 61 62 62 62 62 62 62 62 58 52 53 62 58 60 59 60 61 58 59 60 56 52 49 55 52 48 50 51 54 52 57 53 52 62 59 59 57 57 57 60
59 60 60 60 61 61 61 61 61 61 61 62 61 54 48 60 59 58 57 57 59 60 60 62 62 55 53 52 51 48 48 41 50 53 54 55 47 55 61 57 58 56 54 57 59
59 59 60 60 60 60 61 60 60 61 62 61 55 53 47 59 53 56 56 56 55 57 59 63 60 53 51 47 44 45 39 40 46 55 52 49 44 56 62 57 56 56 54 56 58
58 58 59 60 59 60 60 60 60 59 57 57 56 47 50 48 53 54 54 56 55 55 54 54 51 47 47 45 39 41 41 41 42 51 50 45 44 53 59 59 56 54 54 53 57
58 59 59 59 59 60 58 51 46 45 50 45 48 47 49 52 55 51 54 54 54 52 45 49 44 40 45 49 49 47 45 44 48 52 45 45 46 52 58 58 57 57 54 54 57
57 58 59 59 60 60 55 45 48 48 41 49 50 52 51 52 50 51 55 48 48 44 48 44 40 49 48 48 48 46 42 42 47 50 46 45 45 50 55 55 57 58 59 55 57
57 57 58 58 58 56 50 49 53 50 39 44 49 49 50 52 47 49 52 52 45 44 45 42 45 51 49 47 45 45 42 43 44 46 46 45 44 46 54 56 58 59 61 64 63
57 56 58 58 53 53 48 54 51 49 25 34 41 48 49 51 43 53 56 52 47 42 44 44 49 47 46 44 46 40 49 47 46 43 38 45 37 44 49 52 53 57 59 61 64
56 56 58 59 53 48 52 54 50 44 7 37 40 53 48 46 45 47 53 51 44 43 43 41 44 44 43 44 47 44 49 47 45 41 39 41 36 39 49 48 50 55 59 62 64
55 56 57 55 51 54 55 52 48 25 11 28 42 41 41 43 44 48 47 50 51 45 45 42 46 48 47 50 50 50 45 44 43 41 33 40 38 42 48 49 49 55 59 61 64
55 55 52 54 48 55 53 46 27 17 29 30 35 41 40 40 42 42 42 42 39 34 35 42 42 45 48 43 48 45 40 32 30 30 30 39 37 42 52 48 51 54 57 57 57
55 53 51 52 53 53 49 35 21 22 22 36 35 39 36 37 41 43 39 38 42 42 37 34 32 42 46 46 44 43 42 34 26 28 32 36 33 39 51 57 60 59 59 56 53
54 48 47 49 52 52 39 27 25 25 29 35 37 33 34 37 36 39 40 40 42 41 35 35 36 46 45 47 47 41 38 44 33 27 27 32 35 45 50 51 52 54 53 56 56
45 44 44 50 51 46 33 30 27 34 34 37 29 35 29 32 32 35 37 43 42 43 45 40 34 42 44 47 46 43 45 34 33 27 22 30 30 37 45 52 53 56 52 53 53
43 35 43 50 47 39 29 30 32 34 36 32 28 33 32 33 35 34 34 40 44 43 45 42 39 36 41 39 40 39 38 41 39 35 26 26 35 42 50 53 53 53 53 52 52
35 30 44 47 33 32 31 31 37 35 36 35 32 32 32 33 32 35 34 38 44 45 39 44 36 32 37 41 49 47 44 43 36 31 30 28 37 47 46 48 48 50 53 50 50
32 34 44 44 28 30 34 32 34 33 33 33 32 34 35 38 32 34 38 43 43 44 41 43 33 29 31 35 39 40 44 46 44 37 34 29 37 51 47 47 48 48 51 50 49
34 30 34 36 33 34 31 31 30 35 33 34 33 34 34 35 33 36 35 39 43 44 46 46 36 33 30 33 37 36 40 42 42 34 35 36 40 48 51 47 49 50 50 50 50
33 30 33 28 30 33 36 33 32 32 33 34 33 34 34 31 30 33 37 36 40 44 44 42 32 35 36 35 36 36 39 41 38 39 35 40 41 48 52 53 56 54 53 51 51
32 31 34 32 34 32 36 31 32 30 31 32 33 33 33 32 34 30 36 36 35 39 41 39 32 32 31 36 36 33 35 40 42 42 41 42 40 51 52 52 54 54 52 50 51
36 36 34 34 32 31 29 33 34 33 33 34 34 33 33 34 36 37 36 37 36 36 39 35 33 31 28 33 32 29 34 35 40 43 42 37 44 51 51 52 54 57 58 51 53

GFSSW_sfc_temp_165.txt.gz
Temp
64 64 64 65 64 64 64 64 64 63 63 63 64 64 64 64 64 62 58 66 65 69 67 63 65 64 63 58 60 60 49 47 51 53 54 57 57 63 65 64 63 65 66 63 62
64 64 64 64 64 63 64 64 64 63 63 63 64 63 64 64 60 57 66 70 69 68 62 60 58 61 55 55 55 54 48 50 59 58 56 57 58 59 61 61 63 64 65 61 62
63 63 64 64 64 63 63 63 63 63 62 62 63 63 63 63 55 56 68 69 69 67 63 62 61 59 54 54 53 52 49 55 58 60 61 58 57 60 60 58 64 64 64 59 60
62 63 63 63 63 63 63 62 63 62 62 62 62 63 61 59 42 57 67 68 68 65 63 59 60 54 50 50 52 50 54 57 59 60 58 57 60 58 59 63 66 65 65 60 59
61 62 62 62 62 63 63 63 62 62 62 62 62 62 58 52 52 61 66 66 64 61 60 59 57 56 51 51 50 49 53 56 59 58 58 58 56 58 57 63 65 63 61 61 61
61 61 61 61 62 62 63 63 62 62 62 62 62 62 53 47 61 61 61 61 60 60 60 59 58 59 54 53 50 52 53 54 55 55 56 54 55 56 59 63 63 62 61 61 62
60 60 60 61 61 62 62 62 62 62 62 63 62 57 51 51 60 59 61 58 60 60 58 60 61 57 54 48 53 52 49 51 51 53 52 54 49 51 62 62 61 61 61 60 61
60 60 60 60 61 61 61 62 62 61 61 62 61 54 46 59 59 60 58 57 59 60 61 61 61 57 54 52 52 49 48 45 51 52 53 54 46 55 62 59 59 59 60 59 61
59 59 60 60 60 60 61 61 61 61 62 61 54 52 46 59 54 57 60 55 56 57 60 63 60 52 52 47 44 46 42 43 47 52 53 49 45 56 62 58 58 59 59 59 59
58 59 59 59 59 60 60 60 60 59 56 56 55 47 49 48 52 54 57 57 56 55 53 53 49 45 46 45 37 41 41 43 43 49 50 46 46 52 57 56 56 57 58 57 58
57 58 59 59 59 60 58 52 46 45 49 44 47 46 48 51 55 52 54 54 54 52 45 49 44 40 45 47 46 44 45 44 47 52 49 48 48 51 56 56 55 58 57 59 60
57 58 58 59 60 60 56 45 46 48 41 48 49 50 50 53 47 51 55 48 47 45 48 44 40 47 48 47 45 45 42 41 46 52 47 45 46 51 53 55 58 60 61 60 62
56 57 58 59 58 56 52 49 54 51 38 44 49 49 48 51 47 47 53 48 44 44 44 42 45 51 48 46 43 43 42 43 44 47 47 44 44 48 53 57 58 60 62 64 62
56 56 57 58 52 53 48 53 57 51 32 34 41 47 48 49 43 52 54 50 45 41 45 43 50 46 44 43 46 39 48 47 43 41 37 45 35 45 49 52 52 55 58 61 63
56 56 57 58 52 49 52 54 51 49 17 37 39 53 48 45 44 47 53 49 42 41 44 40 42 42 41 44 48 43 49 46 44 40 39 40 36 41 49 49 53 54 59 61 63
55 55 56 53 53 56 57 52 47 26 17 29 40 41 42 43 42 47 47 50 51 44 40 41 46 47 45 49 49 49 45 44 43 41 32 40 39 42 47 50 54 57 60 61 62
55 55 53 53 48 53 53 45 29 20 31 29 35 41 40 39 41 41 42 41 38 33 35 41 41 44 49 43 47 46 41 32 30 30 31 38 37 42 48 53 52 56 59 60 60
55 55 53 53 55 52 48 33 22 23 23 35 35 40 36 38 41 40 38 37 43 36 35 34 31 41 45 44 40 41 41 33 27 26 28 35 32 39 50 56 59 56 58 58 56
54 48 48 51 51 51 39 26 26 30 29 32 37 33 34 39 36 40 36 37 41 43 35 31 31 42 45 45 46 40 37 43 35 26 27 33 36 44 48 51 52 54 55 55 56
45 43 44 51 51 46 34 33 31 37 35 37 27 32 28 34 34 36 36 42 39 44 48 40 33 39 41 46 46 41 44 35 35 27 25 30 31 37 45 52 56 54 53 55 55
43 36 44 51 48 40 30 31 32 34 39 31 27 29 30 32 35 34 31 38 45 40 46 42 37 36 40 39 40 39 38 39 38 34 29 23 33 41 48 50 51 52 52 52 53
35 30 43 48 33 32 32 32 36 34 35 35 33 30 29 31 33 36 31 37 43 42 38 42 35 32 36 41 45 46 39 39 33 29 31 28 36 47 46 49 49 52 54 53 51
32 34 44 46 29 30 32 31 34 34 35 35 32 35 35 33 30 32 36 41 42 44 40 43 33 29 31 36 39 39 43 44 42 37 30 28 36 46 47 48 49 49 51 52 52
33 28 33 37 33 32 31 30 29 34 34 34 33 35 35 33 33 33 34 38 42 43 46 46 35 33 29 32 37 36 40 43 42 33 35 35 39 46 50 51 52 56 51 52 53
32 31 32 27 31 32 37 34 30 30 33 35 32 34 34 30 31 33 34 35 38 43 42 39 28 34 36 34 37 36 38 41 38 40 35 40 40 46 51 49 53 55 51 52 53
32 31 33 32 34 31 35 33 33 29 31 32 33 35 35 33 34 34 39 37 35 39 38 39 32 33 31 35 37 33 36 37 41 39 39 40 40 51 53 54 50 53 55 53 51
36 37 32 34 33 31 30 33 34 34 33 35 35 35 34 35 37 38 38 38 38 36 35 36 33 31 26 31 32 27 34 38 37 43 43 36 44 51 48 48 49 51 53 54 56

GFSSW_sfc_temp_171.txt.gz
Temp
64 65 65 65 65 65 65 65 64 64 64 64 64 64 64 64 65 69 66 72 72 70 69 76 77 78 79 74 76 77 66 63 67 68 71 74 73 76 79 78 78 79 79 78 79
64 64 64 65 64 64 64 64 64 64 63 63 64 64 64 64 69 65 71 70 70 69 73 73 72 74 73 72 72 70 65 67 76 76 73 75 74 75 74 75 76 77 79 77 76
63 63 64 64 64 64 64 64 64 63 63 63 63 64 64 67 64 66 72 70 69 70 74 74 74 72 68 72 70 70 64 73 75 75 76 74 73 77 73 71 77 77 80 76 76
62 62 63 63 64 64 64 63 63 63 63 63 63 63 63 67 50 69 67 68 69 75 73 70 70 65 64 63 72 62 69 72 73 74 71 70 75 72 73 75 82 84 85 82 76
61 61 62 62 63 63 64 63 63 63 62 62 63 63 63 58 62 73 66 68 72 72 69 68 66 66 61 66 67 61 68 71 72 70 70 72 68 70 72 78 81 81 81 80 81
61 61 61 61 62 63 63 63 62 62 62 63 63 63 61 52 74 74 72 70 72 70 69 71 69 71 66 65 62 67 67 69 70 68 69 65 68 71 72 79 78 78 78 79 80
60 60 60 60 61 62 62 63 63 62 62 63 63 65 57 59 72 73 71 70 72 71 66 73 74 68 68 62 68 65 58 64 66 67 65 67 61 64 74 76 76 77 78 79 79
60 60 60 60 60 62 62 62 62 62 62 63 62 64 55 72 74 68 70 68 71 73 71 73 72 67 65 65 60 57 59 52 65 67 67 63 55 70 78 76 75 76 78 79 80
59 59 60 60 59 60 61 62 61 62 62 63 61 59 53 64 62 69 70 65 67 68 69 70 67 63 62 56 52 55 49 53 58 67 65 61 58 70 76 75 74 75 77 78 79
59 59 59 60 60 59 60 61 61 61 63 65 63 51 56 55 63 67 70 67 61 60 60 60 59 55 54 51 42 48 49 55 56 64 62 59 59 66 71 70 71 73 76 77 78
58 58 59 59 60 60 58 55 48 49 56 52 54 54 57 65 67 62 66 62 61 56 50 56 48 45 52 55 58 58 56 55 60 65 59 59 59 63 68 70 70 72 73 75 77
58 58 59 59 60 60 56 47 54 60 45 57 58 58 60 61 53 59 66 53 52 46 52 49 44 56 59 59 55 55 53 53 58 61 57 56 56 62 66 67 69 71 72 74 76
57 57 58 59 59 57 52 53 62 65 47 49 56 55 55 58 54 54 59 56 52 47 49 46 52 57 55 53 50 49 48 50 52 58 60 56 52 57 65 68 70 72 73 75 75
56 57 58 58 53 55 50 56 57 56 35 43 46 53 57 57 50 63 61 58 51 47 50 49 58 52 51 49 52 45 56 54 51 46 40 57 41 55 62 64 68 71 74 76 77
56 56 57 58 55 49 54 55 52 48 22 44 47 64 58 51 53 53 62 58 50 50 49 48 50 49 46 49 54 49 57 53 51 48 47 49 42 52 62 60 65 70 73 76 78
55 54 56 55 56 60 55 52 46 28 21 35 47 46 46 49 52 52 51 60 59 52 54 53 58 56 54 56 56 57 52 51 49 42 32 44 43 48 57 62 66 71 74 75 77
55 54 50 55 48 57 52 44 28 23 35 33 37 45 47 43 47 45 43 42 43 35 39 48 48 55 56 50 55 52 46 32 30 30 33 52 43 50 61 65 67 68 72 74 77
55 53 51 52 56 53 48 33 25 33 31 44 43 42 40 45 44 44 41 38 49 48 44 38 36 49 54 52 47 46 45 36 29 32 39 49 40 50 64 68 68 70 72 71 71
54 49 47 49 53 51 40 28 29 35 40 40 42 34 37 42 44 43 43 41 46 51 43 40 41 54 55 55 55 46 39 50 39 37 33 44 51 59 63 63 66 68 70 69 70
48 45 44 50 50 46 34 32 34 41 41 44 34 36 32 36 39 40 42 49 46 53 56 48 39 51 52 55 55 51 53 36 35 28 28 41 45 49 57 62 67 68 67 68 69
46 36 47 52 47 37 30 33 36 46 47 39 38 35 41 37 43 39 42 49 53 51 54 49 46 42 48 42 43 45 43 44 44 38 34 34 45 62 62 65 64 66 65 66 66
40 30 49 50 33 32 32 37 39 38 45 45 43 42 41 41 39 41 43 48 56 55 45 50 42 36 40 51 53 51 47 47 38 36 40 39 41 64 63 64 64 64 64 66 67
34 37 48 45 28 30 32 35 42 36 36 43 41 44 48 43 36 44 47 55 55 53 48 49 36 31 33 41 45 43 47 49 48 46 36 33 42 62 65 65 66 65 66 67 68
37 30 35 38 36 33 33 31 33 44 43 47 46 47 45 42 47 41 45 50 52 53 50 51 41 37 34 39 44 36 43 48 45 35 37 40 45 55 61 61 64 65 65 66 66
34 33 34 29 30 33 34 36 33 32 45 47 42 44 43 37 40 39 45 47 49 50 51 48 33 41 44 46 44 41 37 41 41 41 37 45 47 53 58 61 64 64 63 63 63
33 33 35 34 36 32 35 33 34 37 37 36 39 45 45 41 42 39 45 45 42 48 48 48 32 37 34 43 44 35 41 42 40 39 41 45 44 57 61 63 61 61 62 60 61
39 40 41 36 34 31 32 34 40 41 40 46 47 46 43 48 51 53 53 50 49 46 44 41 34 32 31 38 36 29 37 43 44 46 46 38 49 57 57 58 59 59 59 57 56